Other Public Products
Issued by NWS Grand Forks, ND

Home | Current Version | Previous Version | Graphics & Text | Print | Product List | Glossary On
Versions: 1 2 3 4 5 6 7 8 9 10 11 12 13 14 15 16 17 18 19 20 21 22 23 24 25 26 27 28 29 30 31 32 33 34 35 36 37 38 39 40 41 42 43 44 45 46 47 48 49 50
000
FPUS83 KFGF 210310
OPUFGF
PRAIRIE TO PINES WEATHER ROUNDUP
NATIONAL WEATHER SERVICE EASTERN NORTH DAKOTA/GRAND FORKS ND
900 PM CST FRI JAN 20 2017

 **SATELLITE DATA USED TO AUGMENT SKY COVER AT AUTOMATED STATIONS**
 *****  WEATHER ACROSS EASTERN NORTH DAKOTA  *****

CITY           SKY/WX    TMP DP  RH WIND       PRES   REMARKS
GRAND FORKS    CLOUDY    36  33  89 SE13      29.44S
GRAND FORKS AF CLOUDY    34  34 100 SE9       29.43S
GRAND CITY NWS NOT AVBL
BUXTON         NOT AVBL
DEVILS LAKE    MIX PCPN  33  32  96 SE9       29.39S VSB 3/4
FARGO          CLOUDY    39  35  86 SE12      29.43F
WAHPETON ARPT  CLOUDY    34  32  93 SE16      29.43F WCI  23
$$

 *****  WEATHER ACROSS CENTRAL AND WESTERN NORTH DAKOTA  *****

CITY           SKY/WX    TMP DP  RH WIND       PRES   REMARKS
JAMESTOWN      CLOUDY    33  33 100 SE12      29.35F FOG     WCI  24
BISMARCK       CLOUDY    32  30  92 NW3       29.33F FOG
MINOT          CLOUDY    29  27  92 SW5       29.34S WCI  24
MINOT AFB      FRZ DRZL  27  25  93 SW9       29.34S FOG     WCI  17
GARRISON         N/A     24  23  96 W8        29.33F WCI  15
WILLISTON      FAIR      27  24  89 S3        29.32F
DICKINSON      FAIR      25  23  92 W8        29.29S WCI  16
HETTINGER      FAIR      27  24  89 NW8       29.33R WCI  19
$$

 *****  OTHER OBSERVATIONS NORTHEAST NORTH DAKOTA  *****

CITY           SKY/WX    TMP DP  RH WIND       PRES   REMARKS
WALHALLA       NOT AVBL
LANGDON        NOT AVBL
CAVALIER         N/A     34  34 100 SE7       29.45S FOG
GRAFTON        CLOUDY    34  34 100 SE9       29.46S FOG
CANDO          NOT AVBL
FORT TOTTEN      N/A     33  33 100 SE7       29.95S
ROLLA            N/A    N/A N/A N/A MISG        N/A
RUGBY            N/A     32  32 100 SE7       29.36F FOG
 ***** THE ABOVE OBSERVATIONS ARE NON NWS ARE NOT QUALITY
        CONTROLLED AND MAY MIS-REPORT RAIN FOR SNOW...
$$

 *****  OTHER OBSERVATIONS SOUTHEAST NORTH DAKOTA *****

CITY           SKY/WX    TMP DP  RH WIND       PRES   REMARKS
COOPERSTOWN    FOG       34  34 100 SE10      29.39F VSB 1/4
VALLEY CITY    LGT RAIN  32  32 100 SE14G20   29.40F VSB 1/4 WCI  22
OAKES          NOT AVBL
GWINNER        CLOUDY    36  36 100 SE15      29.39F VSB 1/4
SHEYENNE NWR     N/A     34  34 100 SE9       29.95S
BUFFALO        NOT AVBL
WYNDMERE       NOT AVBL
 ***** THE ABOVE OBSERVATIONS ARE NON NWS ARE NOT QUALITY
       CONTROLLED AND MAY MIS-REPORT RAIN FOR SNOW...
$$

  *****  WEATHER ACROSS NORTHERN MINNESOTA  *****

CITY           SKY/WX    TMP DP  RH WIND       PRES   REMARKS
FLAG ISLAND    LGT RAIN  34  34 100 SE6       29.51F
WARROAD        LGT RAIN  34  30  86 E6        29.50F
ROSEAU         CLOUDY    36  30  80 SE7       29.49S HAZE
HALLOCK        CLOUDY    36  36 100 SE13      29.46S
THF RVR FALLS  CLOUDY    34  33  96 SE17      29.47F WCI  23
HALSTAD        NOT AVBL
FOSSTON        CLOUDY    34  32  93 E9        29.48S FOG
BAUDETTE       MIX PCPN  34  33  96 SE8       29.51F
WASKISH        CLOUDY    36  36 100 SE7       29.52S
CROOKSTON      CLOUDY    36  36 100 SE14      29.46S
$$
  *****  WEATHER ACROSS CENTRAL AND WEST MINNESOTA  *****

CITY           SKY/WX    TMP DP  RH WIND       PRES   REMARKS
BEMIDJI        CLOUDY    33  33 100 SE10      29.50S WCI  25
PARK RAPIDS    CLOUDY    34  32  92 SE9       29.49S FOG
WADENA         LGT RAIN  34  34 100 SE8       29.49S
DETROIT LAKES  CLOUDY    34  34 100 SE13      29.47S FOG     WCI  25
MOORHEAD       CLOUDY    36  34  93 SE7       29.44F
FERGUS FALLS   CLOUDY    36  36 100 SE14      29.49S
ELBOW LAKE     CLOUDY    34  34 100 SE13      29.46S FOG
MORRIS MN      MIX PCPN  34  34 100 SE16      29.45F WCI  23
STAPLES        FOG       34  34 100 SE3       29.51S VSB 3/4
WHEATON        CLOUDY    43  43 100 SE16      29.45F FOG
$$
  *****  WEATHER ELSEWHERE ACROSS MINNESOTA  *****

CITY           SKY/WX    TMP DP  RH WIND       PRES   REMARKS
DULUTH         FOG       35  34  96 E9        29.56F VSB 1/4
INTRNTL FALLS  LGT RAIN  35  33  92 SE12      29.55F
ELY            LGT RAIN  34  34 100 E3        29.58F
CLOQUET        FOG       34  34 100 E5        29.56S VSB 1/2
BRAINERD       CLOUDY    34  34 100 SE6       29.53S FOG
HIBBING        CLOUDY    32  32 100 SE9       29.56S FOG     WCI  24
ALEXANDRIA     CLOUDY    34  33  96 SE10      29.48F FOG
SAINT CLOUD    FOG       34  34 100 SE6       29.54R VSB 1/4
MINNEAPOLIS    FOG       35  34  96 SE8       29.57R VSB 1
$$

  *****  WEATHER ACROSS SOUTH DAKOTA  *****

CITY           SKY/WX    TMP DP  RH WIND       PRES   REMARKS
SIOUX FALLS    FOG       39  39 100 S10       29.43S VSB 1
BROOKINGS      CLOUDY    36  36 100 SE16      29.40S FOG
WATERTOWN      FOG       35  35 100 SE13      29.38F VSB 1/4
HURON          CLOUDY    38  38 100 S14G23    29.35S
SISSETON         N/A     35  35 100 S17       29.41F WCI  25
ABERDEEN       CLOUDY    33  30  88 S3        29.36S FOG
MITCHELL       CLOUDY    40  39  97 S14       29.38S
PIERRE         FOG       22  20  92 SW6       29.33S VSB 1/2 WCI  14
MOBRIDGE       CLOUDY    25  22  88 SE8       29.29S FOG     WCI  16
RAPID CITY     CLOUDY    36  31  82 NW14      29.34S
$$

  *****  SOME WEATHER IN NEARBY STATES *****

CITY           SKY/WX    TMP DP  RH WIND       PRES   REMARKS
GLASGOW MT     FAIR      33  29  85 W5        29.36F
GREAT FALLS MT FAIR      29  19  66 S9        29.33F WCI  20
CHEYENNE WY    FAIR      28  17  63 NW6       29.41S WCI  22
SCOTTSBLUFF NE CLOUDY    35  32  88 NW7       29.40F
OMAHA NE       CLOUDY    41  38  89 SE8       29.45S
DES MOINES IA  DRZL/FOG  41  40  96 E9        29.49F VSB 1/2
DAVENPORT IA   FOG       41  41 100 SE8       29.59R VSB 1/4
CHICAGO IL     DRZL/FOG  42  41  96 NE3       29.64F VSB 1/2
EAU CLAIRE WI  CLOUDY    35  34  96 SE7       29.60R FOG
LA CROSSE WI   CLOUDY    40  36  86 E5        29.60F
$$

  *****  SOME NATIONAL WEATHER *****

CITY           SKY/WX    TMP DP  RH WIND       PRES   REMARKS
LA GUARDIA NY  LGT RAIN  43  39  86 SE7       29.92F FOG
RALEIGH NC     MOCLDY    50  50 100 CALM      29.92S FOG
ATLANTA GA     MOCLDY    63  59  87 S6        29.88R
NEW ORLEANS LA CLOUDY    70  70 100 S9        29.79S FOG
OKLAHOMA CITY  FAIR      54  35  48 SW12      29.54R
ALBUQUERQUE NM CLOUDY    37  35  92 NE3       29.64F
SALT LAKE CITY CLOUDY    36  30  79 SE8       29.34S
LOS ANGELES CA MOCLDY    55  47  74 W23G37    29.51R
BOISE ID       CLOUDY    37  28  70 SE10      29.26R
SEATTLE WA     CLOUDY    46  38  73 S7        29.14R
$$

*** WEATHER ACROSS MANITOBA...SASKATCHEWAN AND ONTARIO ***
                ***ONTARIO***

CITY           SKY/WX    TMP DP  RH WIND       PRES   REMARKS
GERALDTON      FOG       32  32 100 VRB2      29.66S VSB 1/8
THUNDER BAY    SNOW      34  34 100 NE6       29.67F VSB 3/8
SIOUX LOOKOUT  NOT AVBL
TORONTO        DRIZZLE   37  37 100 SE2       29.74S FOG
BIG TROUT LK   CLOUDY    25  25 100 SE8       29.68S WCI  16
PICKLE LAKE    NOT AVBL
DRYDEN         LGT RAIN  36  36 100 SE8       29.57S
KENORA         DRIZZLE   36  36 100 SE10      29.52S FOG
$$
                *** MANITOBA***

CITY           SKY/WX    TMP DP  RH WIND       PRES   REMARKS
BRANDON        FOG       28  27  93 E8        29.40F VSB 1/4 WCI  20
DAUPHIN        PTCLDY    25  19  80 S5        29.42R WCI  19
ISLAND LAKE    FRZ RAIN  32  32 100 E3        29.58F VSB 1
PILOT MOUND      N/A     32  32 100 SE13        N/A  WCI  22
THE PAS        CLOUDY    25  21  86 E7        29.42S WCI  17
THOMPSON       CLOUDY    27  25  93 E6        29.55R FOG     WCI  20
WINNIPEG       NOT AVBL
LYNN LAKE      CLOUDY    27  27 100 SE10G18   29.48S FOG     WCI  17
CHURCHILL      FLURRIES  18  16  93 E18G25    29.80F WCI   2
GILLAM         FLURRIES  28  27  93 E7        29.65S WCI  21
$$
                ***SASKATCHEWAN***

CITY           SKY/WX    TMP DP  RH WIND       PRES   REMARKS
ESTEVAN        CLOUDY    16  14  93 E5        29.31F FOG     WCI   9
KINDERSLEY     PTCLDY    27  25  93 N8        29.32F WCI  18
LLOYDMINSTER   PTCLDY    27  27 100 NW7       29.36S WCI  19
PRINCE ALBERT  MOCLDY    27  25  93 E3        29.35R
REGINA         CLOUDY    25  23  93 S6        29.30F WCI  18
YORKTON        CLEAR     19  18  93 S9        29.32F WCC1F1C2F2C3F3C4F4C5F5C6F6C7F7C8F8C9F9CaFaCbFbCcFcCdFdCe!



USA.gov is the U.S. government's official web portal to all federal, state and local government web resources and services.